Time,TemperatureF,DewpointF,PressureIn,WindDirection,WindDirectionDegrees,WindSpeedMPH,WindSpeedGustMPH,Humidity,HourlyPrecipIn,Conditions,Clouds,dailyrainin,SolarRadiationWatts/m^2,SoftwareType,DateUTC
2013-03-30 00:00:00,45.6,32.9,29.95,WSW,256,0.0,5.0,61,0.00,,CLR,0.00,0.00,VWS V14.01,2013-03-30 06:00:00,
2013-03-30 00:05:00,44.9,32.7,29.95,WSW,246,0.0,2.0,62,0.00,,CLR,0.00,0.00,VWS V14.01,2013-03-30 06:05:00,
2013-03-30 00:10:00,43.9,32.1,29.96,SW,229,1.0,4.0,63,0.00,,CLR,0.00,0.00,VWS V14.01,2013-03-30 06:10:00,
2013-03-30 00:15:00,44.3,32.9,29.96,WSW,254,5.0,6.0,64,0.00,,CLR,0.00,0.00,VWS V14.01,2013-03-30 06:15:00,
2013-03-30 00:20:00,45.2,33.0,29.95,WSW,252,3.0,7.0,62,0.00,,CLR,0.00,0.00,VWS V14.01,2013-03-30 06:20:00,
2013-03-30 00:25:00,45.3,33.1,29.95,WSW,250,3.0,7.0,62,0.00,,CLR,0.00,0.00,VWS V14.01,2013-03-30 06:25:00,
2013-03-30 00:30:00,45.1,32.9,29.95,WSW,242,0.0,7.0,62,0.00,,CLR,0.00,0.00,VWS V14.01,2013-03-30 06:30:00,
2013-03-30 00:35:00,44.9,32.7,29.96,SW,236,1.0,4.0,62,0.00,,CLR,0.00,0.00,VWS V14.01,2013-03-30 06:35:00,
2013-03-30 00:40:00,45.1,32.9,29.96,WSW,254,3.0,6.0,62,0.00,,CLR,0.00,0.00,VWS V14.01,2013-03-30 06:40:00,
2013-03-30 00:45:00,45.6,33.3,29.96,WSW,241,3.0,7.0,62,0.00,,CLR,0.00,0.00,VWS V14.01,2013-03-30 06:45:00,
2013-03-30 00:50:00,45.6,32.9,29.96,WSW,240,2.0,7.0,61,0.00,,CLR,0.00,0.00,VWS V14.01,2013-03-30 06:50:00,
2013-03-30 00:55:00,45.5,33.2,29.96,WSW,240,2.0,7.0,62,0.00,,CLR,0.00,0.00,VWS V14.01,2013-03-30 06:55:00,
2013-03-30 01:00:00,45.6,32.9,29.96,West,260,3.0,7.0,61,0.00,,CLR,0.00,0.00,VWS V14.01,2013-03-30 07:00:00,
2013-03-30 01:05:00,45.7,33.0,29.97,WSW,246,3.0,5.0,61,0.00,,BKN110,0.00,0.00,VWS V14.01,2013-03-30 07:05:00,
2013-03-30 01:10:00,46.0,33.3,29.97,West,259,1.0,5.0,61,0.00,,BKN110,0.00,0.00,VWS V14.01,2013-03-30 07:10:00,
2013-03-30 01:15:00,46.3,33.2,29.97,WSW,245,3.0,5.0,60,0.00,,BKN110,0.00,0.00,VWS V14.01,2013-03-30 07:15:00,
2013-03-30 01:20:00,46.6,33.5,29.97,WSW,256,4.0,5.0,60,0.00,,BKN110,0.00,0.00,VWS V14.01,2013-03-30 07:20:00,
2013-03-30 01:25:00,46.9,33.3,29.97,West,265,2.0,5.0,59,0.00,,BKN110,0.00,0.00,VWS V14.01,2013-03-30 07:25:00,
2013-03-30 01:30:00,46.7,33.2,29.97,WSW,239,2.0,5.0,59,0.00,,BKN110,0.00,0.00,VWS V14.01,2013-03-30 07:30:00,
2013-03-30 01:35:00,46.4,33.3,29.98,WSW,254,3.0,5.0,60,0.00,,BKN110,0.00,0.00,VWS V14.01,2013-03-30 07:35:00,
2013-03-30 01:40:00,46.1,33.0,29.98,West,268,1.0,5.0,60,0.00,,BKN110,0.00,0.00,VWS V14.01,2013-03-30 07:40:00,
2013-03-30 01:45:00,46.1,33.4,29.99,WSW,254,3.0,5.0,61,0.00,,BKN110,0.00,0.00,VWS V14.01,2013-03-30 07:45:00,
2013-03-30 01:50:00,46.1,33.4,29.99,WSW,257,1.0,5.0,61,0.00,,BKN110,0.00,0.00,VWS V14.01,2013-03-30 07:50:00,
2013-03-30 01:55:00,46.2,33.5,29.99,WSW,256,0.0,5.0,61,0.00,,BKN110,0.00,0.00,VWS V14.01,2013-03-30 07:55:00,
2013-03-30 02:00:00,46.3,33.6,29.99,WNW,292,1.0,5.0,61,0.00,,BKN110,0.00,0.00,VWS V14.01,2013-03-30 08:00:00,
2013-03-30 02:05:00,46.4,33.3,29.98,NW,306,4.0,4.0,60,0.00,,BKN130,0.00,0.00,VWS V14.01,2013-03-30 08:05:00,
2013-03-30 02:10:00,47.4,34.6,29.98,NW,305,4.0,8.0,61,0.00,,BKN130,0.00,0.00,VWS V14.01,2013-03-30 08:10:00,
2013-03-30 02:15:00,47.9,34.7,29.98,NW,326,4.0,8.0,60,0.00,,BKN130,0.00,0.00,VWS V14.01,2013-03-30 08:15:00,
2013-03-30 02:20:00,48.5,34.8,29.98,NW,325,3.0,8.0,59,0.00,,BKN130,0.00,0.00,VWS V14.01,2013-03-30 08:20:00,
2013-03-30 02:25:00,49.2,34.6,29.97,NW,311,9.0,14.0,57,0.00,,BKN130,0.00,0.00,VWS V14.01,2013-03-30 08:25:00,
2013-03-30 02:30:00,49.6,35.0,29.97,WNW,302,12.0,16.0,57,0.00,,BKN130,0.00,0.00,VWS V14.01,2013-03-30 08:30:00,
2013-03-30 02:35:00,49.6,35.0,29.97,WNW,296,7.0,14.0,57,0.00,,BKN130,0.00,0.00,VWS V14.01,2013-03-30 08:35:00,
2013-03-30 02:40:00,49.7,35.1,29.97,WNW,289,11.0,14.0,57,0.00,,BKN130,0.00,0.00,VWS V14.01,2013-03-30 08:40:00,
2013-03-30 02:45:00,49.8,35.2,29.97,West,276,9.0,14.0,57,0.00,,BKN130,0.00,0.00,VWS V14.01,2013-03-30 08:45:00,
2013-03-30 02:50:00,49.9,35.3,29.97,NNW,347,3.0,14.0,57,0.00,,BKN130,0.00,0.00,VWS V14.01,2013-03-30 08:50:00,
2013-03-30 02:55:00,49.8,35.6,29.97,NW,323,5.0,14.0,58,0.00,,BKN130,0.00,0.00,VWS V14.01,2013-03-30 08:55:00,
2013-03-30 03:00:00,49.8,36.1,29.97,West,269,3.0,14.0,59,0.00,,OVC090,0.00,0.00,VWS V14.01,2013-03-30 09:00:00,
2013-03-30 03:01:00,49.8,36.1,29.97,SSW,210,3.0,14.0,59,0.00,,BKN130,0.00,0.00,VWS V14.01,2013-03-30 09:01:00,
2013-03-30 03:06:00,49.7,36.0,29.96,West,265,4.0,9.0,59,0.00,,OVC080,0.00,0.00,VWS V14.01,2013-03-30 09:06:00,
2013-03-30 03:11:00,49.4,36.1,29.97,WNW,302,5.0,9.0,60,0.00,,OVC080,0.00,0.00,VWS V14.01,2013-03-30 09:11:00,
2013-03-30 03:16:00,49.3,36.4,29.97,NW,312,1.0,9.0,61,0.00,,OVC080,0.00,0.00,VWS V14.01,2013-03-30 09:16:00,
2013-03-30 03:21:00,49.2,36.3,29.96,WNW,294,3.0,9.0,61,0.00,,OVC080,0.00,0.00,VWS V14.01,2013-03-30 09:21:00,
2013-03-30 03:26:00,49.1,36.7,29.96,WNW,300,2.0,9.0,62,0.00,,OVC080,0.00,0.00,VWS V14.01,2013-03-30 09:26:00,
2013-03-30 03:30:00,49.0,36.6,29.96,NNW,338,1.0,9.0,62,0.00,,OVC090,0.00,0.00,VWS V14.01,2013-03-30 09:30:00,
2013-03-30 03:31:00,49.1,37.1,29.96,West,263,2.0,3.0,63,0.00,,OVC080,0.00,0.00,VWS V14.01,2013-03-30 09:31:00,
2013-03-30 03:34:00,49.0,37.0,29.96,West,269,1.0,4.0,63,0.00,,OVC080,0.00,0.00,VWS V14.01,2013-03-30 09:34:00,
2013-03-30 03:39:00,48.8,36.8,29.96,WNW,301,2.0,5.0,63,0.00,,OVC080,0.00,0.00,VWS V14.01,2013-03-30 09:39:00,
2013-03-30 03:44:00,48.7,37.1,29.96,West,266,0.0,5.0,64,0.00,,OVC080,0.00,0.00,VWS V14.01,2013-03-30 09:44:00,
2013-03-30 03:49:00,48.4,36.8,29.96,West,274,1.0,5.0,64,0.00,,OVC080,0.00,0.00,VWS V14.01,2013-03-30 09:49:00,
2013-03-30 03:54:00,48.2,37.0,29.96,West,275,1.0,5.0,65,0.00,,OVC080,0.00,0.00,VWS V14.01,2013-03-30 09:54:00,
2013-03-30 03:59:00,47.9,36.7,29.96,West,263,3.0,5.0,65,0.00,,OVC080,0.00,0.00,VWS V14.01,2013-03-30 09:59:00,
2013-03-30 04:00:00,47.8,37.0,29.96,WSW,250,2.0,5.0,66,0.00,,OVC090,0.00,0.00,VWS V14.01,2013-03-30 10:00:00,
2013-03-30 04:04:00,47.6,36.8,29.96,WSW,253,2.0,4.0,66,0.00,,OVC100,0.00,0.00,VWS V14.01,2013-03-30 10:04:00,
2013-03-30 04:09:00,47.4,36.6,29.97,WSW,246,4.0,6.0,66,0.00,,OVC100,0.00,0.00,VWS V14.01,2013-03-30 10:09:00,
2013-03-30 04:14:00,47.1,36.7,29.97,West,269,2.0,6.0,67,0.00,,OVC100,0.00,0.00,VWS V14.01,2013-03-30 10:14:00,
2013-03-30 04:19:00,46.7,36.7,29.96,WSW,250,2.0,6.0,68,0.00,,OVC100,0.00,0.00,VWS V14.01,2013-03-30 10:19:00,
2013-03-30 04:24:00,46.3,36.7,29.96,WSW,242,2.0,6.0,69,0.00,,OVC100,0.00,0.00,VWS V14.01,2013-03-30 10:24:00,
2013-03-30 04:29:00,46.0,36.4,29.97,WSW,248,1.0,6.0,69,0.00,,OVC100,0.00,0.00,VWS V14.01,2013-03-30 10:29:00,
2013-03-30 04:30:00,46.0,36.8,29.97,WSW,254,2.0,6.0,70,0.00,,OVC090,0.00,0.00,VWS V14.01,2013-03-30 10:30:00,
2013-03-30 04:34:00,45.8,36.6,29.97,WSW,244,1.0,4.0,70,0.00,,OVC100,0.00,0.00,VWS V14.01,2013-03-30 10:34:00,
2013-03-30 04:39:00,45.6,36.4,29.97,WSW,247,1.0,4.0,70,0.00,,OVC100,0.00,0.00,VWS V14.01,2013-03-30 10:39:00,
2013-03-30 04:44:00,45.6,36.4,29.97,SW,236,2.0,4.0,70,0.00,,OVC100,0.00,0.00,VWS V14.01,2013-03-30 10:44:00,
2013-03-30 04:49:00,45.5,36.7,29.97,WSW,242,1.0,4.0,71,0.00,,OVC100,0.00,0.00,VWS V14.01,2013-03-30 10:49:00,
2013-03-30 04:54:00,45.5,36.7,29.97,SW,235,1.0,4.0,71,0.00,,OVC100,0.00,0.00,VWS V14.01,2013-03-30 10:54:00,
2013-03-30 04:59:00,45.5,36.7,29.97,SW,235,1.0,4.0,71,0.00,,OVC100,0.00,0.00,VWS V14.01,2013-03-30 10:59:00,
2013-03-30 05:00:00,45.5,36.7,29.97,SW,234,2.0,4.0,71,0.00,,OVC090,0.00,0.00,VWS V14.01,2013-03-30 11:00:00,
2013-03-30 05:04:00,45.4,36.6,29.97,SW,235,0.0,2.0,71,0.00,,BKN120,0.00,0.00,VWS V14.01,2013-03-30 11:04:00,
2013-03-30 05:09:00,45.4,36.6,29.97,WSW,248,1.0,2.0,71,0.00,,BKN120,0.00,0.00,VWS V14.01,2013-03-30 11:09:00,
2013-03-30 05:14:00,45.3,36.5,29.97,WSW,250,0.0,2.0,71,0.00,,BKN120,0.00,0.00,VWS V14.01,2013-03-30 11:14:00,
2013-03-30 05:19:00,45.2,36.4,29.97,WSW,249,0.0,2.0,71,0.00,,BKN120,0.00,0.00,VWS V14.01,2013-03-30 11:19:00,
2013-03-30 05:24:00,44.9,36.1,29.97,West,268,0.0,2.0,71,0.00,,BKN120,0.00,0.00,VWS V14.01,2013-03-30 11:24:00,
2013-03-30 05:29:00,44.5,36.0,29.97,West,269,2.0,2.0,72,0.00,,BKN120,0.00,0.00,VWS V14.01,2013-03-30 11:29:00,
2013-03-30 05:30:00,44.4,36.0,29.97,West,269,1.0,2.0,72,0.00,,OVC090,0.00,0.00,VWS V14.01,2013-03-30 11:30:00,
2013-03-30 05:34:00,44.0,35.6,29.98,West,273,1.0,2.0,72,0.00,,BKN120,0.00,0.00,VWS V14.01,2013-03-30 11:34:00,
2013-03-30 05:39:00,43.3,35.2,29.98,West,268,0.0,2.0,73,0.00,,BKN120,0.00,0.00,VWS V14.01,2013-03-30 11:39:00,
2013-03-30 05:44:00,42.8,35.1,29.98,West,269,0.0,2.0,74,0.00,,BKN120,0.00,0.00,VWS V14.01,2013-03-30 11:44:00,
2013-03-30 05:49:00,42.6,35.2,29.98,West,268,0.0,2.0,75,0.00,,BKN120,0.00,0.00,VWS V14.01,2013-03-30 11:49:00,
2013-03-30 05:54:00,42.7,35.3,29.98,West,269,1.0,2.0,75,0.00,,BKN120,0.00,0.00,VWS V14.01,2013-03-30 11:54:00,
2013-03-30 05:59:00,42.9,35.5,29.98,West,259,2.0,2.0,75,0.00,,BKN120,0.00,0.00,VWS V14.01,2013-03-30 11:59:00,
2013-03-30 06:00:00,43.0,35.6,29.98,West,259,1.0,2.0,75,0.00,,OVC090,0.00,0.00,VWS V14.01,2013-03-30 12:00:00,
2013-03-30 06:04:00,43.0,35.6,30.00,West,259,0.0,2.0,75,0.00,,FEW180,0.00,0.00,VWS V14.01,2013-03-30 12:04:00,
2013-03-30 06:09:00,43.0,35.3,30.00,West,259,0.0,2.0,74,0.00,,FEW180,0.00,0.00,VWS V14.01,2013-03-30 12:09:00,
2013-03-30 06:14:00,42.6,34.9,30.00,West,260,1.0,2.0,74,0.00,,FEW180,0.00,0.00,VWS V14.01,2013-03-30 12:14:00,
2013-03-30 06:19:00,41.8,34.5,30.00,West,260,1.0,2.0,75,0.00,,FEW180,0.00,0.00,VWS V14.01,2013-03-30 12:19:00,
2013-03-30 06:24:00,41.1,34.1,30.01,West,260,0.0,2.0,76,0.00,,FEW180,0.00,0.00,VWS V14.01,2013-03-30 12:24:00,
2013-03-30 06:29:00,40.8,34.2,30.00,West,259,1.0,2.0,77,0.00,,FEW180,0.00,0.00,VWS V14.01,2013-03-30 12:29:00,
2013-03-30 06:30:00,40.8,34.2,30.01,West,260,0.0,2.0,77,0.00,,OVC090,0.00,0.00,VWS V14.01,2013-03-30 12:30:00,
2013-03-30 06:34:00,40.8,34.5,30.00,West,260,1.0,2.0,78,0.00,,FEW180,0.00,0.00,VWS V14.01,2013-03-30 12:34:00,
2013-03-30 06:39:00,40.9,34.6,30.01,West,260,0.0,2.0,78,0.00,,FEW180,0.00,0.00,VWS V14.01,2013-03-30 12:39:00,
2013-03-30 06:44:00,41.0,34.7,30.01,West,260,1.0,2.0,78,0.00,,FEW180,0.00,7.00,VWS V14.01,2013-03-30 12:44:00,
2013-03-30 06:49:00,41.0,34.7,30.01,West,259,0.0,2.0,78,0.00,,FEW180,0.00,12.00,VWS V14.01,2013-03-30 12:49:00,
2013-03-30 06:55:00,41.0,34.7,30.01,West,260,0.0,2.0,78,0.00,,FEW180,0.00,19.00,VWS V14.01,2013-03-30 12:55:00,
2013-03-30 07:00:00,40.4,33.8,30.01,West,260,0.0,2.0,77,0.00,,FEW180,0.00,21.00,VWS V14.01,2013-03-30 13:00:00,
2013-03-30 07:05:00,39.7,33.4,30.03,West,260,0.0,2.0,78,0.00,,CLR,0.00,23.00,VWS V14.01,2013-03-30 13:05:00,
2013-03-30 07:10:00,39.2,33.2,30.03,West,260,0.0,2.0,79,0.00,,CLR,0.00,26.00,VWS V14.01,2013-03-30 13:10:00,
2013-03-30 07:15:00,39.0,33.4,30.03,West,260,0.0,2.0,80,0.00,,CLR,0.00,26.00,VWS V14.01,2013-03-30 13:15:00,
2013-03-30 07:20:00,38.9,33.6,30.03,West,260,1.0,2.0,81,0.00,,CLR,0.00,28.00,VWS V14.01,2013-03-30 13:20:00,
2013-03-30 07:25:00,38.8,33.5,30.02,West,260,0.0,2.0,81,0.00,,CLR,0.00,32.00,VWS V14.01,2013-03-30 13:25:00,
2013-03-30 07:30:00,38.9,33.9,30.03,West,260,1.0,2.0,82,0.00,,CLR,0.00,37.00,VWS V14.01,2013-03-30 13:30:00,
2013-03-30 07:35:00,39.2,34.2,30.03,West,263,1.0,3.0,82,0.00,,CLR,0.00,63.00,VWS V14.01,2013-03-30 13:35:00,
2013-03-30 07:40:00,39.7,34.7,30.03,West,267,0.0,3.0,82,0.00,,CLR,0.00,118.00,VWS V14.01,2013-03-30 13:40:00,
2013-03-30 07:45:00,40.3,35.2,30.03,West,268,0.0,3.0,82,0.00,,CLR,0.00,186.00,VWS V14.01,2013-03-30 13:45:00,
2013-03-30 07:50:00,41.1,35.7,30.03,West,269,1.0,3.0,81,0.00,,CLR,0.00,199.00,VWS V14.01,2013-03-30 13:50:00,
2013-03-30 07:55:00,42.0,36.6,30.02,WSW,254,1.0,3.0,81,0.00,,CLR,0.00,229.00,VWS V14.01,2013-03-30 13:55:00,
2013-03-30 08:00:00,43.9,38.1,30.02,WSW,250,2.0,5.0,80,0.00,,CLR,0.00,267.00,VWS V14.01,2013-03-30 14:00:00,
2013-03-30 08:05:00,46.3,38.8,30.02,West,280,2.0,5.0,75,0.00,,CLR,0.00,287.00,VWS V14.01,2013-03-30 14:05:00,
2013-03-30 08:10:00,48.3,39.0,30.01,WSW,245,3.0,7.0,70,0.00,,CLR,0.00,209.00,VWS V14.01,2013-03-30 14:10:00,
2013-03-30 08:15:00,49.4,38.1,30.01,West,259,8.0,10.0,65,0.00,,CLR,0.00,199.00,VWS V14.01,2013-03-30 14:15:00,
2013-03-30 08:20:00,49.9,37.8,30.00,WSW,257,6.0,10.0,63,0.00,,CLR,0.00,197.00,VWS V14.01,2013-03-30 14:20:00,
2013-03-30 08:25:00,50.2,37.7,30.00,WSW,256,4.0,10.0,62,0.00,,CLR,0.00,167.00,VWS V14.01,2013-03-30 14:25:00,
2013-03-30 08:30:00,50.5,37.6,30.00,WSW,257,1.0,10.0,61,0.00,,CLR,0.00,156.00,VWS V14.01,2013-03-30 14:30:00,
2013-03-30 08:35:00,50.8,37.8,30.00,NW,306,2.0,6.0,61,0.00,,CLR,0.00,162.00,VWS V14.01,2013-03-30 14:35:00,
2013-03-30 08:40:00,51.1,38.1,30.00,NNW,344,2.0,6.0,61,0.00,,CLR,0.00,229.00,VWS V14.01,2013-03-30 14:40:00,
2013-03-30 08:45:00,51.5,38.5,29.99,West,272,2.0,6.0,61,0.00,,CLR,0.00,271.00,VWS V14.01,2013-03-30 14:45:00,
2013-03-30 08:50:00,52.2,38.3,29.99,WNW,287,5.0,8.0,59,0.00,,CLR,0.00,287.00,VWS V14.01,2013-03-30 14:50:00,
2013-03-30 08:55:00,52.7,38.3,29.99,WNW,302,3.0,9.0,58,0.00,,CLR,0.00,230.00,VWS V14.01,2013-03-30 14:55:00,
2013-03-30 09:00:00,53.0,38.2,29.99,WNW,295,10.0,13.0,57,0.00,,CLR,0.00,276.00,VWS V14.01,2013-03-30 15:00:00,
2013-03-30 09:05:00,53.4,37.7,29.99,WNW,288,6.0,12.0,55,0.00,,OVC120,0.00,323.00,VWS V14.01,2013-03-30 15:05:00,
2013-03-30 09:10:00,53.6,37.8,29.99,NW,305,4.0,14.0,55,0.00,,OVC120,0.00,290.00,VWS V14.01,2013-03-30 15:10:00,
2013-03-30 09:15:00,53.4,37.2,29.99,WNW,287,5.0,15.0,54,0.00,,OVC120,0.00,250.00,VWS V14.01,2013-03-30 15:15:00,
2013-03-30 09:20:00,53.6,37.8,29.99,WNW,287,4.0,15.0,55,0.00,,OVC120,0.00,220.00,VWS V14.01,2013-03-30 15:20:00,
2013-03-30 09:25:00,53.3,36.6,29.99,NW,313,11.0,16.0,53,0.00,,OVC120,0.00,244.00,VWS V14.01,2013-03-30 15:25:00,
2013-03-30 09:30:00,53.2,37.0,29.99,NW,313,11.0,18.0,54,0.00,,OVC120,0.00,299.00,VWS V14.01,2013-03-30 15:30:00,
2013-03-30 09:35:00,53.5,37.3,29.99,NNW,347,12.0,15.0,54,0.00,,OVC120,0.00,301.00,VWS V14.01,2013-03-30 15:35:00,
2013-03-30 09:40:00,54.1,36.4,29.99,NW,317,14.0,20.0,51,0.00,,OVC120,0.00,559.00,VWS V14.01,2013-03-30 15:40:00,
2013-03-30 09:45:00,54.5,36.3,29.98,NW,308,11.0,20.0,50,0.00,,OVC120,0.00,533.00,VWS V14.01,2013-03-30 15:45:00,
2013-03-30 09:50:00,54.9,36.1,29.98,NW,311,15.0,20.0,49,0.00,,OVC120,0.00,439.00,VWS V14.01,2013-03-30 15:50:00,
2013-03-30 09:55:00,55.0,36.7,29.98,WNW,302,7.0,20.0,50,0.00,,OVC120,0.00,629.00,VWS V14.01,2013-03-30 15:55:00,
2013-03-30 10:00:00,55.2,35.9,29.98,North,355,10.0,20.0,48,0.00,,OVC120,0.00,513.00,VWS V14.01,2013-03-30 16:00:00,
2013-03-30 10:05:00,55.4,35.5,30.00,North,355,14.0,18.0,47,0.00,,FEW140,0.00,559.00,VWS V14.01,2013-03-30 16:05:00,
2013-03-30 10:10:00,55.7,35.3,30.00,WNW,298,13.0,18.0,46,0.00,,FEW140,0.00,628.00,VWS V14.01,2013-03-30 16:10:00,
2013-03-30 10:15:00,55.5,36.7,30.00,NNW,344,17.0,18.0,49,0.00,,FEW140,0.00,628.00,VWS V14.01,2013-03-30 16:15:00,
2013-03-30 10:20:00,55.8,36.4,29.99,NW,315,16.0,18.0,48,0.00,,FEW140,0.00,640.00,VWS V14.01,2013-03-30 16:20:00,
2013-03-30 10:25:00,55.9,36.5,29.99,NNW,348,10.0,20.0,48,0.00,,FEW140,0.00,657.00,VWS V14.01,2013-03-30 16:25:00,
2013-03-30 10:30:00,55.6,35.7,29.99,NNW,341,7.0,20.0,47,0.00,,FEW140,0.00,682.00,VWS V14.01,2013-03-30 16:30:00,
2013-03-30 10:35:00,56.1,36.2,29.99,NNW,331,12.0,20.0,47,0.00,,FEW140,0.00,677.00,VWS V14.01,2013-03-30 16:35:00,
2013-03-30 10:40:00,56.3,37.4,29.99,NNW,327,7.0,20.0,49,0.00,,FEW140,0.00,694.00,VWS V14.01,2013-03-30 16:40:00,
2013-03-30 10:45:00,56.5,37.1,29.99,NNW,346,10.0,20.0,48,0.00,,FEW140,0.00,701.00,VWS V14.01,2013-03-30 16:45:00,
2013-03-30 10:50:00,56.1,36.2,29.99,NW,326,13.0,22.0,47,0.00,,FEW140,0.00,737.00,VWS V14.01,2013-03-30 16:50:00,
2013-03-30 10:55:00,56.4,36.4,29.99,NNW,329,13.0,22.0,47,0.00,,FEW140,0.00,728.00,VWS V14.01,2013-03-30 16:55:00,
2013-03-30 11:00:00,56.3,36.9,29.99,North,355,14.0,22.0,48,0.00,,FEW140,0.00,758.00,VWS V14.01,2013-03-30 17:00:00,
2013-03-30 11:05:00,55.7,36.8,30.00,North,5,9.0,19.0,49,0.00,,FEW049,0.00,754.00,VWS V14.01,2013-03-30 17:05:00,
2013-03-30 11:10:00,56.3,36.9,29.99,NNW,338,12.0,20.0,48,0.00,,FEW049,0.00,782.00,VWS V14.01,2013-03-30 17:10:00,
2013-03-30 11:15:00,56.6,37.2,29.99,North,5,12.0,20.0,48,0.00,,FEW049,0.00,816.00,VWS V14.01,2013-03-30 17:15:00,
2013-03-30 11:20:00,57.3,36.2,30.00,NNW,333,11.0,20.0,45,0.00,,FEW049,0.00,858.00,VWS V14.01,2013-03-30 17:20:00,
2013-03-30 11:25:00,57.3,36.2,29.99,NW,320,18.0,20.0,45,0.00,,FEW049,0.00,995.00,VWS V14.01,2013-03-30 17:25:00,
2013-03-30 11:30:00,57.1,35.4,29.99,NW,313,11.0,20.0,44,0.00,,FEW049,0.00,830.00,VWS V14.01,2013-03-30 17:30:00,
2013-03-30 11:35:00,57.3,35.6,29.99,North,5,11.0,19.0,44,0.00,,FEW049,0.00,675.00,VWS V14.01,2013-03-30 17:35:00,
2013-03-30 11:40:00,56.8,36.3,29.99,NNE,15,14.0,19.0,46,0.00,,FEW049,0.00,404.00,VWS V14.01,2013-03-30 17:40:00,
2013-03-30 11:45:00,56.0,34.4,30.00,NNW,348,6.0,20.0,44,0.00,,FEW049,0.00,443.00,VWS V14.01,2013-03-30 17:45:00,
2013-03-30 11:50:00,55.5,36.2,30.00,North,355,7.0,20.0,48,0.00,,FEW049,0.00,292.00,VWS V14.01,2013-03-30 17:50:00,
2013-03-30 11:55:00,55.4,36.1,30.00,North,350,14.0,20.0,48,0.00,,FEW049,0.00,211.00,VWS V14.01,2013-03-30 17:55:00,
2013-03-30 12:00:00,55.0,34.6,30.01,WNW,295,12.0,20.0,46,0.00,,OVC090,0.00,135.00,VWS V14.01,2013-03-30 18:00:00,
2013-03-30 12:01:00,55.0,34.6,30.01,West,269,15.0,20.0,46,0.00,,FEW049,0.00,135.00,VWS V14.01,2013-03-30 18:01:00,
2013-03-30 12:06:00,54.4,36.2,30.01,WNW,295,14.0,20.0,50,0.00,,FEW049,0.00,79.00,VWS V14.01,2013-03-30 18:06:00,
2013-03-30 12:11:00,53.3,35.2,30.02,West,278,5.0,20.0,50,0.00,,FEW049,0.00,40.00,VWS V14.01,2013-03-30 18:11:00,
2013-03-30 12:16:00,50.8,37.4,30.04,ESE,123,15.0,34.0,60,0.00,,FEW049,0.00,46.00,VWS V14.01,2013-03-30 18:16:00,
2013-03-30 12:21:00,48.5,39.2,30.06,NW,305,13.0,34.0,70,0.00,,FEW049,0.00,60.00,VWS V14.01,2013-03-30 18:21:00,
2013-03-30 12:26:00,45.9,39.4,30.07,NNW,327,22.0,34.0,78,0.01,,FEW049,0.01,69.00,VWS V14.01,2013-03-30 18:26:00,
2013-03-30 12:30:00,45.1,39.9,30.08,NW,306,17.0,34.0,82,0.01,,OVC090,0.01,88.00,VWS V14.01,2013-03-30 18:30:00,
2013-03-30 12:31:00,45.1,39.9,30.08,NW,306,17.0,34.0,82,0.01,,FEW049,0.01,88.00,VWS V14.01,2013-03-30 18:31:00,
2013-03-30 12:36:00,45.2,40.0,30.08,NW,311,11.0,20.0,82,0.02,,OVC055,0.02,142.00,VWS V14.01,2013-03-30 18:36:00,
2013-03-30 12:41:00,45.5,41.0,30.06,NW,325,3.0,20.0,84,0.02,,OVC055,0.02,158.00,VWS V14.01,2013-03-30 18:41:00,
2013-03-30 12:46:00,45.9,41.3,30.06,WSW,237,1.0,20.0,84,0.02,,OVC055,0.02,178.00,VWS V14.01,2013-03-30 18:46:00,
2013-03-30 12:51:00,46.4,41.8,30.05,West,281,5.0,20.0,84,0.03,,OVC055,0.03,160.00,VWS V14.01,2013-03-30 18:51:00,
2013-03-30 12:56:00,46.9,42.0,30.05,NW,315,1.0,20.0,83,0.03,,OVC055,0.03,178.00,VWS V14.01,2013-03-30 18:56:00,
2013-03-30 13:00:00,47.2,42.0,30.05,West,276,2.0,20.0,82,0.03,,OVC090,0.03,200.00,VWS V14.01,2013-03-30 19:00:00,
2013-03-30 13:01:00,47.2,42.0,30.05,WNW,286,3.0,3.0,82,0.03,,OVC055,0.03,200.00,VWS V14.01,2013-03-30 19:01:00,
2013-03-30 13:06:00,47.4,41.5,30.05,NW,313,3.0,6.0,80,0.03,,OVC055,0.03,211.00,VWS V14.01,2013-03-30 19:06:00,
2013-03-30 13:11:00,47.7,41.5,30.04,NNW,342,4.0,6.0,79,0.03,,OVC055,0.03,309.00,VWS V14.01,2013-03-30 19:11:00,
2013-03-30 13:16:00,48.4,42.2,30.04,North,355,5.0,9.0,79,0.03,,OVC055,0.03,381.00,VWS V14.01,2013-03-30 19:16:00,
2013-03-30 13:21:00,49.4,42.5,30.04,NNW,330,7.0,12.0,77,0.03,,OVC055,0.03,731.00,VWS V14.01,2013-03-30 19:21:00,
2013-03-30 13:27:00,50.7,42.4,30.03,North,5,7.0,12.0,73,0.03,,OVC055,0.03,731.00,VWS V14.01,2013-03-30 19:27:00,
2013-03-30 13:30:00,50.7,40.9,30.02,NNW,343,10.0,12.0,69,0.03,,OVC090,0.03,320.00,VWS V14.01,2013-03-30 19:30:00,
2013-03-30 13:32:00,50.5,39.6,30.02,North,355,6.0,12.0,66,0.02,,OVC070,0.03,320.00,VWS V14.01,2013-03-30 19:32:00,
2013-03-30 13:36:00,50.3,40.5,30.03,NW,311,9.0,14.0,69,0.02,,OVC070,0.03,288.00,VWS V14.01,2013-03-30 19:36:00,
2013-03-30 13:41:00,50.9,40.3,30.02,North,355,6.0,14.0,67,0.02,,OVC070,0.03,728.00,VWS V14.01,2013-03-30 19:41:00,
2013-03-30 13:46:00,51.2,40.6,30.02,NNW,336,5.0,14.0,67,0.02,,OVC070,0.03,202.00,VWS V14.01,2013-03-30 19:46:00,
2013-03-30 13:51:00,51.3,37.9,30.02,NNW,342,9.0,14.0,60,0.02,,OVC070,0.03,838.00,VWS V14.01,2013-03-30 19:51:00,
2013-03-30 13:57:00,52.1,39.1,30.01,North,355,11.0,17.0,61,0.02,,OVC070,0.03,770.00,VWS V14.01,2013-03-30 19:57:00,
2013-03-30 14:00:00,52.9,39.8,30.01,NNW,333,10.0,17.0,61,0.02,,OVC090,0.03,345.00,VWS V14.01,2013-03-30 20:00:00,
2013-03-30 14:02:00,53.0,39.5,30.00,NNW,340,11.0,11.0,60,0.00,,SCT080,0.03,276.00,VWS V14.01,2013-03-30 20:02:00,
2013-03-30 14:07:00,52.4,38.1,30.01,NW,315,21.0,22.0,58,0.00,,SCT080,0.03,144.00,VWS V14.01,2013-03-30 20:07:00,
2013-03-30 14:12:00,50.9,36.2,30.01,North,350,9.0,22.0,57,0.00,,SCT080,0.03,221.00,VWS V14.01,2013-03-30 20:12:00,
2013-03-30 14:17:00,50.9,36.2,30.01,North,349,13.0,23.0,57,0.00,,SCT080,0.03,206.00,VWS V14.01,2013-03-30 20:17:00,
2013-03-30 14:22:00,51.0,35.9,30.01,NNW,337,10.0,23.0,56,0.00,,SCT080,0.03,171.00,VWS V14.01,2013-03-30 20:22:00,
2013-03-30 14:27:00,50.8,34.8,30.01,NNW,341,17.0,23.0,54,0.00,,SCT080,0.03,130.00,VWS V14.01,2013-03-30 20:27:00,
2013-03-30 14:30:00,50.6,35.5,30.01,NW,326,15.0,23.0,56,0.00,,OVC090,0.03,176.00,VWS V14.01,2013-03-30 20:30:00,
2013-03-30 14:32:00,50.5,35.8,30.01,NNW,336,13.0,18.0,57,0.00,,SCT080,0.03,186.00,VWS V14.01,2013-03-30 20:32:00,
2013-03-30 14:37:00,50.3,36.5,30.01,North,355,14.0,20.0,59,0.00,,SCT080,0.03,241.00,VWS V14.01,2013-03-30 20:37:00,
2013-03-30 14:42:00,50.5,36.3,30.01,NW,319,14.0,22.0,58,0.00,,SCT080,0.03,313.00,VWS V14.01,2013-03-30 20:42:00,
2013-03-30 14:47:00,51.1,36.4,30.00,NW,319,17.0,22.0,57,0.00,,SCT080,0.03,325.00,VWS V14.01,2013-03-30 20:47:00,
2013-03-30 14:52:00,52.2,36.1,30.00,WNW,294,11.0,22.0,54,0.00,,SCT080,0.03,735.00,VWS V14.01,2013-03-30 20:52:00,
2013-03-30 14:57:00,53.1,35.0,30.00,NW,314,16.0,23.0,50,0.00,,SCT080,0.03,230.00,VWS V14.01,2013-03-30 20:57:00,
2013-03-30 15:00:00,52.1,35.0,30.00,NNW,340,19.0,26.0,52,0.00,,OVC090,0.03,253.00,VWS V14.01,2013-03-30 21:00:00,
2013-03-30 15:02:00,51.9,34.8,30.00,WNW,300,24.0,24.0,52,0.00,,BKN080,0.03,264.00,VWS V14.01,2013-03-30 21:02:00,
2013-03-30 15:07:00,52.5,34.4,30.00,NW,306,16.0,26.0,50,0.00,,BKN080,0.03,357.00,VWS V14.01,2013-03-30 21:07:00,
2013-03-30 15:12:00,51.6,36.0,30.00,WNW,299,30.0,34.0,55,0.00,,BKN080,0.03,309.00,VWS V14.01,2013-03-30 21:12:00,
2013-03-30 15:17:00,50.3,35.2,30.01,WNW,292,24.0,34.0,56,0.00,,BKN080,0.03,272.00,VWS V14.01,2013-03-30 21:17:00,
2013-03-30 15:22:00,50.4,35.8,30.00,NW,313,27.0,34.0,57,0.00,,BKN080,0.03,251.00,VWS V14.01,2013-03-30 21:22:00,
2013-03-30 15:27:00,50.3,35.2,30.01,WNW,296,10.0,34.0,56,0.00,,BKN080,0.03,239.00,VWS V14.01,2013-03-30 21:27:00,
2013-03-30 15:30:00,50.5,35.4,30.02,ENE,70,5.0,34.0,56,0.00,,OVC090,0.03,236.00,VWS V14.01,2013-03-30 21:30:00,
2013-03-30 15:32:00,50.3,36.1,30.02,West,279,16.0,18.0,58,0.00,,-RA,0.03,227.00,VWS V14.01,2013-03-30 21:32:00,
2013-03-30 15:37:00,49.6,37.1,30.02,North,355,12.0,18.0,62,0.00,,-RA,0.03,186.00,VWS V14.01,2013-03-30 21:37:00,
2013-03-30 15:42:00,49.3,37.7,30.02,West,272,11.0,18.0,64,0.00,,-RA,0.03,181.00,VWS V14.01,2013-03-30 21:42:00,
2013-03-30 15:47:00,49.3,38.0,30.02,NNW,333,7.0,18.0,65,0.00,,-RA,0.03,195.00,VWS V14.01,2013-03-30 21:47:00,
2013-03-30 15:52:00,49.4,37.8,30.02,SW,222,5.0,18.0,64,0.00,,-RA,0.03,192.00,VWS V14.01,2013-03-30 21:52:00,
2013-03-30 15:57:00,49.6,37.9,30.02,WSW,238,12.0,18.0,64,0.00,,-RA,0.03,183.00,VWS V14.01,2013-03-30 21:57:00,
2013-03-30 16:00:00,49.7,37.6,30.02,WNW,286,9.0,18.0,63,0.00,,OVC090,0.03,192.00,VWS V14.01,2013-03-30 22:00:00,
2013-03-30 16:02:00,49.7,37.6,30.03,SW,236,10.0,12.0,63,0.00,,BKN095,0.03,209.00,VWS V14.01,2013-03-30 22:02:00,
2013-03-30 16:07:00,49.7,38.0,30.03,South,179,7.0,13.0,64,0.00,,BKN095,0.03,257.00,VWS V14.01,2013-03-30 22:07:00,
2013-03-30 16:12:00,49.8,38.9,30.03,SSW,196,7.0,13.0,66,0.00,,BKN095,0.03,258.00,VWS V14.01,2013-03-30 22:12:00,
2013-03-30 16:18:00,50.2,38.5,30.03,West,278,2.0,16.0,64,0.00,,BKN095,0.03,195.00,VWS V14.01,2013-03-30 22:18:00,
2013-03-30 16:22:00,50.4,37.9,30.02,NE,34,6.0,16.0,62,0.00,,BKN095,0.03,162.00,VWS V14.01,2013-03-30 22:22:00,
2013-03-30 16:27:00,50.3,38.2,30.03,NW,315,7.0,20.0,63,0.00,,BKN095,0.03,165.00,VWS V14.01,2013-03-30 22:27:00,
2013-03-30 16:30:00,50.4,38.3,30.03,WNW,282,11.0,20.0,63,0.00,,OVC090,0.03,153.00,VWS V14.01,2013-03-30 22:30:00,
2013-03-30 16:33:00,50.4,38.3,30.02,WNW,285,14.0,16.0,63,0.00,,BKN095,0.03,139.00,VWS V14.01,2013-03-30 22:33:00,
2013-03-30 16:38:00,50.1,35.9,30.02,WNW,287,12.0,17.0,58,0.00,,BKN095,0.03,118.00,VWS V14.01,2013-03-30 22:38:00,
2013-03-30 16:43:00,49.9,36.2,30.02,NW,304,7.0,17.0,59,0.00,,BKN095,0.03,186.00,VWS V14.01,2013-03-30 22:43:00,
2013-03-30 16:48:00,50.7,36.0,30.03,West,269,12.0,24.0,57,0.00,,BKN095,0.03,192.00,VWS V14.01,2013-03-30 22:48:00,
2013-03-30 16:53:00,50.8,36.6,30.03,WNW,293,12.0,24.0,58,0.00,,BKN095,0.03,130.00,VWS V14.01,2013-03-30 22:53:00,
2013-03-30 16:58:00,50.3,37.4,30.03,South,169,15.0,24.0,61,0.00,,BKN095,0.03,91.00,VWS V14.01,2013-03-30 22:58:00,
2013-03-30 17:00:00,49.6,37.1,30.02,WSW,238,9.0,24.0,62,0.00,,OVC090,0.03,120.00,VWS V14.01,2013-03-30 23:00:00,
2013-03-30 17:03:00,49.3,36.8,30.03,NW,326,5.0,15.0,62,0.00,,-RA,0.03,132.00,VWS V14.01,2013-03-30 23:03:00,
2013-03-30 17:08:00,49.1,37.1,30.03,WNW,283,7.0,17.0,63,0.00,,-RA,0.03,327.00,VWS V14.01,2013-03-30 23:08:00,
2013-03-30 17:13:00,49.6,37.9,30.03,SSW,210,9.0,17.0,64,0.00,,-RA,0.03,209.00,VWS V14.01,2013-03-30 23:13:00,
2013-03-30 17:18:00,49.0,37.8,30.03,West,259,10.0,17.0,65,0.00,,-RA,0.03,144.00,VWS V14.01,2013-03-30 23:18:00,
2013-03-30 17:23:00,49.0,37.8,30.03,West,268,9.0,17.0,65,0.00,,-RA,0.03,139.00,VWS V14.01,2013-03-30 23:23:00,
2013-03-30 17:28:00,49.1,37.9,30.03,NW,306,6.0,17.0,65,0.00,,-RA,0.03,163.00,VWS V14.01,2013-03-30 23:28:00,
2013-03-30 17:30:00,49.3,38.4,30.03,West,262,11.0,17.0,66,0.00,,OVC090,0.03,139.00,VWS V14.01,2013-03-30 23:30:00,
2013-03-30 17:33:00,49.4,38.5,30.03,WSW,256,5.0,11.0,66,0.00,,OVC090,0.03,120.00,VWS V14.01,2013-03-30 23:33:00,
2013-03-30 18:00:00,51.0,38.5,30.02,West,270,7.0,14.0,62,0.00,,OVC090,0.03,184.00,VWS V14.01,2013-03-31 00:00:00,
2013-03-30 18:30:00,50.8,35.7,30.05,WNW,292,9.0,18.0,56,0.00,,OVC090,0.03,101.00,VWS V14.01,2013-03-31 00:30:00,
2013-03-30 19:00:00,51.0,38.5,30.02,West,270,7.0,14.0,62,0.00,,,0.03,184.00,VWS V14.01,2013-03-31 01:00:00,
2013-03-30 19:17:00,47.1,36.7,30.05,West,265,2.0,9.0,67,0.00,,OVC090,0.03,5.00,VWS V14.01,2013-03-31 01:17:00,
2013-03-30 19:22:00,47.0,37.0,30.05,SSW,211,2.0,9.0,68,0.00,,OVC090,0.03,0.00,VWS V14.01,2013-03-31 01:22:00,
2013-03-30 19:27:00,46.7,36.7,30.05,NW,325,3.0,9.0,68,0.00,,OVC090,0.03,0.00,VWS V14.01,2013-03-31 01:27:00,
2013-03-30 19:30:00,46.4,36.4,30.05,WNW,290,3.0,9.0,68,0.00,,OVC080,0.03,0.00,VWS V14.01,2013-03-31 01:30:00,
2013-03-30 19:32:00,46.2,36.2,30.05,West,267,4.0,4.0,68,0.00,,SCT100,0.03,0.00,VWS V14.01,2013-03-31 01:32:00,
2013-03-30 19:37:00,45.8,36.2,30.06,WNW,292,3.0,4.0,69,0.00,,SCT100,0.03,0.00,VWS V14.01,2013-03-31 01:37:00,
2013-03-30 19:42:00,45.4,36.2,30.06,WNW,286,2.0,5.0,70,0.00,,SCT100,0.03,0.00,VWS V14.01,2013-03-31 01:42:00,
2013-03-30 19:47:00,45.0,35.8,30.06,West,264,2.0,5.0,70,0.00,,SCT100,0.03,0.00,VWS V14.01,2013-03-31 01:47:00,
2013-03-30 19:52:00,44.7,35.9,30.06,WSW,257,1.0,5.0,71,0.00,,SCT100,0.03,0.00,VWS V14.01,2013-03-31 01:52:00,
2013-03-30 19:57:00,44.0,35.2,30.07,SW,234,3.0,5.0,71,0.00,,SCT100,0.03,0.00,VWS V14.01,2013-03-31 01:57:00,
2013-03-30 20:00:00,43.3,34.9,30.08,SW,235,1.0,5.0,72,0.00,,OVC080,0.03,0.00,VWS V14.01,2013-03-31 02:00:00,
2013-03-30 20:02:00,43.1,34.7,30.05,SW,234,0.0,3.0,72,0.00,,CLR,0.03,0.00,VWS V14.01,2013-03-31 02:02:00,
2013-03-30 20:07:00,42.8,34.8,30.05,SW,234,0.0,3.0,73,0.00,,CLR,0.03,0.00,VWS V14.01,2013-03-31 02:07:00,
2013-03-30 20:12:00,42.4,34.7,30.05,NE,43,3.0,5.0,74,0.00,,CLR,0.03,0.00,VWS V14.01,2013-03-31 02:12:00,
2013-03-30 20:17:00,41.5,34.2,30.06,NE,45,0.0,5.0,75,0.00,,CLR,0.03,0.00,VWS V14.01,2013-03-31 02:17:00,
2013-03-30 20:22:00,41.7,35.0,30.06,NNW,327,4.0,6.0,77,0.00,,CLR,0.03,0.00,VWS V14.01,2013-03-31 02:22:00,
2013-03-30 20:27:00,42.9,35.9,30.06,NNW,328,6.0,12.0,76,0.00,,CLR,0.03,0.00,VWS V14.01,2013-03-31 02:27:00,
2013-03-30 20:30:00,43.9,36.2,30.06,North,5,7.0,12.0,74,0.00,,OVC080,0.03,0.00,VWS V14.01,2013-03-31 02:30:00,
2013-03-30 20:33:00,44.2,36.5,30.06,WNW,300,6.0,12.0,74,0.00,,BKN070,0.03,0.00,VWS V14.01,2013-03-31 02:33:00,
2013-03-30 20:38:00,44.8,36.7,30.05,North,360,9.0,15.0,73,0.00,,BKN070,0.03,0.00,VWS V14.01,2013-03-31 02:38:00,
2013-03-30 20:43:00,44.7,36.6,30.05,NW,319,11.0,15.0,73,0.00,,BKN070,0.03,0.00,VWS V14.01,2013-03-31 02:43:00,
2013-03-30 20:48:00,44.5,36.4,30.06,North,349,11.0,16.0,73,0.00,,BKN070,0.03,0.00,VWS V14.01,2013-03-31 02:48:00,
2013-03-30 20:53:00,44.2,36.5,30.07,NNW,344,9.0,16.0,74,0.00,,BKN070,0.03,0.00,VWS V14.01,2013-03-31 02:53:00,
2013-03-30 20:58:00,43.8,36.7,30.07,North,355,7.0,16.0,76,0.00,,BKN070,0.03,0.00,VWS V14.01,2013-03-31 02:58:00,
2013-03-30 21:00:00,43.5,36.5,30.08,NNW,334,12.0,16.0,76,0.00,,OVC080,0.03,0.00,VWS V14.01,2013-03-31 03:00:00,
2013-03-30 21:03:00,43.4,37.7,30.07,NW,318,9.0,15.0,80,0.00,,CLR,0.03,0.00,VWS V14.01,2013-03-31 03:03:00,
2013-03-30 21:08:00,43.2,36.5,30.07,NNW,340,9.0,15.0,77,0.00,,CLR,0.03,0.00,VWS V14.01,2013-03-31 03:08:00,
2013-03-30 21:13:00,43.0,36.3,30.08,NW,324,5.0,15.0,77,0.00,,CLR,0.03,0.00,VWS V14.01,2013-03-31 03:13:00,
2013-03-30 21:18:00,42.6,36.2,30.08,North,350,9.0,15.0,78,0.00,,CLR,0.03,0.00,VWS V14.01,2013-03-31 03:18:00,
2013-03-30 21:23:00,42.3,35.9,30.09,NNW,342,12.0,15.0,78,0.00,,CLR,0.03,0.00,VWS V14.01,2013-03-31 03:23:00,
2013-03-30 21:28:00,42.4,36.4,30.09,NW,325,12.0,17.0,79,0.00,,CLR,0.03,0.00,VWS V14.01,2013-03-31 03:28:00,
2013-03-30 21:30:00,42.5,36.8,30.09,NNW,331,12.0,17.0,80,0.00,,OVC080,0.03,0.00,VWS V14.01,2013-03-31 03:30:00,
2013-03-30 21:33:00,42.6,36.9,30.09,NNW,334,7.0,18.0,80,0.00,,CLR,0.03,0.00,VWS V14.01,2013-03-31 03:33:00,
2013-03-30 21:38:00,42.5,36.5,30.09,West,277,13.0,18.0,79,0.00,,CLR,0.03,0.00,VWS V14.01,2013-03-31 03:38:00,
2013-03-30 21:43:00,42.3,36.3,30.10,North,355,12.0,18.0,79,0.00,,CLR,0.03,0.00,VWS V14.01,2013-03-31 03:43:00,
2013-03-30 21:48:00,42.0,36.3,30.10,West,261,12.0,18.0,80,0.00,,CLR,0.03,0.00,VWS V14.01,2013-03-31 03:48:00,
2013-03-30 21:53:00,41.7,36.0,30.11,WNW,300,13.0,18.0,80,0.00,,CLR,0.03,0.00,VWS V14.01,2013-03-31 03:53:00,
2013-03-30 21:58:00,41.7,36.3,30.11,NW,311,12.0,18.0,81,0.00,,CLR,0.03,0.00,VWS V14.01,2013-03-31 03:58:00,
2013-03-30 22:00:00,41.6,37.7,30.11,West,281,10.0,18.0,86,0.00,,CLR,0.03,0.00,VWS V14.01,2013-03-31 04:00:00,
2013-03-30 22:01:00,41.6,36.2,30.10,NW,318,12.0,12.0,81,0.00,,CLR,0.03,0.00,VWS V14.01,2013-03-31 04:01:00,
2013-03-30 22:06:00,41.4,36.3,30.11,NW,307,12.0,15.0,82,0.00,,FEW048,0.03,0.00,VWS V14.01,2013-03-31 04:06:00,
2013-03-30 22:11:00,41.3,36.2,30.11,WNW,296,6.0,15.0,82,0.00,,FEW048,0.03,0.00,VWS V14.01,2013-03-31 04:11:00,
2013-03-30 22:16:00,41.1,36.0,30.11,NNW,338,11.0,15.0,82,0.00,,FEW048,0.03,0.00,VWS V14.01,2013-03-31 04:16:00,
2013-03-30 22:21:00,41.0,35.6,30.11,West,272,5.0,15.0,81,0.00,,FEW048,0.03,0.00,VWS V14.01,2013-03-31 04:21:00,
2013-03-30 22:26:00,40.7,35.3,30.11,WNW,291,7.0,15.0,81,0.00,,FEW048,0.03,0.00,VWS V14.01,2013-03-31 04:26:00,
2013-03-30 22:30:00,40.4,35.0,30.11,WNW,294,5.0,15.0,81,0.00,,OVC080,0.03,0.00,VWS V14.01,2013-03-31 04:30:00,
2013-03-30 22:31:00,40.3,34.9,30.11,NW,316,5.0,5.0,81,0.00,,FEW048,0.03,0.00,VWS V14.01,2013-03-31 04:31:00,
2013-03-30 22:36:00,39.9,34.9,30.11,WNW,290,4.0,5.0,82,0.00,,FEW048,0.03,0.00,VWS V14.01,2013-03-31 04:36:00,
2013-03-30 22:41:00,39.4,34.4,30.11,WNW,291,3.0,5.0,82,0.00,,FEW048,0.03,0.00,VWS V14.01,2013-03-31 04:41:00,
2013-03-30 22:46:00,39.0,34.0,30.11,WNW,290,2.0,6.0,82,0.00,,FEW048,0.03,0.00,VWS V14.01,2013-03-31 04:46:00,
2013-03-30 22:51:00,38.6,33.9,30.11,West,267,2.0,6.0,83,0.00,,FEW048,0.03,0.00,VWS V14.01,2013-03-31 04:51:00,
2013-03-30 22:56:00,38.3,33.6,30.11,WNW,291,2.0,6.0,83,0.00,,FEW048,0.03,0.00,VWS V14.01,2013-03-31 04:56:00,
2013-03-30 23:00:00,38.1,33.4,30.11,WNW,285,0.0,6.0,83,0.00,,OVC080,0.03,0.00,VWS V14.01,2013-03-31 05:00:00,
2013-03-30 23:01:00,38.1,33.4,30.12,West,278,0.0,1.0,83,0.00,,CLR,0.03,0.00,VWS V14.01,2013-03-31 05:01:00,
2013-03-30 23:06:00,37.7,33.3,30.12,WSW,244,1.0,4.0,84,0.00,,CLR,0.03,0.00,VWS V14.01,2013-03-31 05:06:00,
2013-03-30 23:11:00,37.3,32.9,30.12,SW,234,2.0,4.0,84,0.00,,CLR,0.03,0.00,VWS V14.01,2013-03-31 05:11:00,
2013-03-30 23:16:00,36.8,32.7,30.12,SW,223,3.0,4.0,85,0.00,,CLR,0.03,0.00,VWS V14.01,2013-03-31 05:16:00,
2013-03-30 23:21:00,36.7,32.6,30.11,SW,223,4.0,5.0,85,0.00,,CLR,0.03,0.00,VWS V14.01,2013-03-31 05:21:00,
2013-03-30 23:27:00,36.8,33.0,30.11,SW,231,3.0,5.0,86,0.00,,CLR,0.03,0.00,VWS V14.01,2013-03-31 05:27:00,
2013-03-30 23:30:00,36.8,33.0,30.11,SW,232,2.0,5.0,86,0.00,,OVC080,0.03,0.00,VWS V14.01,2013-03-31 05:30:00,
2013-03-30 23:32:00,36.7,32.9,30.11,SW,215,5.0,5.0,86,0.00,,CLR,0.03,0.00,VWS V14.01,2013-03-31 05:32:00,
2013-03-30 23:37:00,36.7,32.9,30.11,WSW,245,4.0,5.0,86,0.00,,CLR,0.03,0.00,VWS V14.01,2013-03-31 05:37:00,
2013-03-30 23:42:00,37.2,33.1,30.11,WSW,247,3.0,5.0,85,0.00,,CLR,0.03,0.00,VWS V14.01,2013-03-31 05:42:00,
2013-03-30 23:47:00,37.5,33.1,30.11,WSW,240,2.0,5.0,84,0.00,,CLR,0.03,0.00,VWS V14.01,2013-03-31 05:47:00,
2013-03-30 23:52:00,37.4,32.7,30.11,WSW,240,1.0,5.0,83,0.00,,CLR,0.03,0.00,VWS V14.01,2013-03-31 05:52:00,
2013-03-30 23:57:00,36.9,32.2,30.11,WSW,240,1.0,5.0,83,0.00,,CLR,0.03,0.00,VWS V14.01,2013-03-31 05:57:00,